Regional Weather Roundup
Issued by NWS Green Bay, WI

Home | Current Version | Previous Version | Text Only | Print | Product List | Glossary On
Versions: 1 2 3 4 5 6 7 8 9 10 11 12 13 14 15 16 17 18 19 20 21 22 23 24 25 26 27 28 29 30 31 32 33 34 35 36 37 38 39 40 41 42 43 44 45 46 47 48 49 50
000
ASUS43 KGRB 132211
RWRGRB

NORTH-CENTRAL AND NORTHEAST WISCONSIN REGIONAL WEATHER ROUNDUP
NATIONAL WEATHER SERVICE GREEN BAY WI
400 PM CST SAT FEB 13 2016

WIZ005-009-010>012-018-019-132300-
NORTH CENTRAL WISCONSIN

CITY           SKY/WX    TMP DP  RH WIND       PRES   REMARKS
IRONWOOD       SUNNY      7  -8  51 W6        30.40F WCI  -3
MANITOWISH WTR SUNNY      8  -8  48 CALM      30.37S
ARBOR VITAE    SUNNY     11  -6  45 W3        30.37S
EAGLE RIVER    SUNNY      9  -7  49 NW6       30.36S WCI  -1
LAND O LAKES   SUNNY     10  -3  55 W3        30.36S
RHINELANDER    SUNNY      8  -7  50 W6        30.38F WCI  -2
PHILLIPS       SUNNY      9 -12  39 W3        30.39S
ANTIGO         SUNNY      9  -7  47 W7        30.39S WCI  -2
TOMAHAWK       SUNNY     10 -12  37 W5        30.40F WCI   1
MERRILL        SUNNY     12  -8  39 W6        30.42S WCI   3
$$

WIZ013-073-132300-
NORTHEAST WISCONSIN

CITY           SKY/WX    TMP DP  RH WIND       PRES   REMARKS
IRON MOUNTAIN  MIX PCPN  12  -6  44 NW10      30.40R WCI  -1
MARINETTE      SUNNY     14  -6  41 N6        30.46S WCI   5
OCONTO         SUNNY     14  -6  41 SW3       30.47S
$$

WIZ017-030-035>037-045-132300-
CENTRAL WISCONSIN

CITY           SKY/WX    TMP DP  RH WIND       PRES   REMARKS
MEDFORD        SUNNY      6  -9  49 SW6       30.41S WCI  -5
WAUSAU         SUNNY      8  -8  48 W5        30.43F WCI   0
MOSINEE        SUNNY      7  -9  47 W9        30.45F WCI  -7
MARSHFIELD     SUNNY      7 -11  43 NW5       30.44F WCI  -2
WISC RAPIDS    SUNNY     10 -11  38 N6        30.49F WCI   0
STEVENS POINT  SUNNY      6 -10  46 W9        30.47F WCI  -8
WAUPACA        SUNNY     13  -9  37 W8        30.49F WCI   2
SHAWANO        SUNNY     15  -7  37 W8        30.47S WCI   5
CLINTONVILLE   SUNNY     14  -9  34 W8        30.47F WCI   3
WAUTOMA        SUNNY     11 -10  38 W5        30.50F WCI   3
$$

WIZ038-039-048-051-132300-
FOX VALLEY

CITY           SKY/WX    TMP DP  RH WIND       PRES   REMARKS
NWS GREEN BAY  SUNNY     10  -5  50 W10       30.49F WCI  -4
APPLETON       MOSUNNY   10  -9  40 W8        30.46F WCI  -1
OSHKOSH        SUNNY     11  -7  44 W8        30.49F WCI  -1
FOND DU LAC    SUNNY     10  -7  46 W7        30.50F WCI  -1
$$

WIZ022-050-052-132300-
EAST CENTRAL WISCONSIN

CITY           SKY/WX    TMP DP  RH WIND       PRES   REMARKS
EPHRAIM        FAIR      12  -6  44 N8        30.44S WCI   0
STURGEON BAY   SUNNY     10  -8  44 W7        30.49S WCI   0
MANITOWOC      SUNNY     11  -4  51 W9        30.51S WCI  -2
SHEBOYGAN      SUNNY      9  -7  48 NW9       30.50F WCI  -4
$$

LMZ563-521-522-541>543-132300-
LAKESHORE

STATION/POSITION TIME  TEMP    WIND        PRES    VSBY  WAVE
                       AIR SEA DIR/SP/G                  HT/PER
                 (UTC) (F)     (DEG/KT/KT) (MB)    (MI)  (FT/S)
SHEBOYGAN LKSHOR 2200    9     270/ 12/ 14 1035.1F
KEWAUNEE LKSHORE 2100   10     280/  6/ 10 1031.6R
ALGOMA MARINA    2126           CALM  /  5   N/A
SISTER BAY LKSHO 2119   24     300/  6/  7   N/A
CHAMBERS ISLAND  2100   17     300/  3/  7 1031.5S
MENOMINEE LKSHOR 2100   14     290/  6     1030.4R
$$



USA.gov is the U.S. government's official web portal to all federal, state and local government web resources and services.